sat.trackr.live / text

‹ back to catalog

THEA

NORAD 43796 · 2018-099AQ

PAYLOAD ACTIVE UNKNOWN

§ Identity

Operator
Country
US
Launch date
2018-12-03
Launch site
AFWTR
Launch vehicle
Mass (kg)
RCS (m²)

External: N2YO · Heavens-Above · Gunter

§ Orbital elements

Epoch: 2026-09-20T03:38:19.769280Z

Period
93.63 min
Inclination
97.4351°
Eccentricity
0.0005535
Mean motion
15.38027293 rev/d
Perigee alt
448.2 km
Apogee alt
455.7 km
Semi-major
6,830.1 km
B*
3.7773e-4
RAAN
333.9302°
Arg perigee
310.1126°
Mean anomaly
49.9634°
Rev number
42,727

§ Raw data

THEA1 43796U 18099AQ  26263.15161770  .00014064  00000+0  37773-3 0  99972 43796  97.4351 333.9302 0005535 310.1126  49.9634 15.38027293427272

JSON: /api/v1/satellites/43796 · /tle

For live sub-satellite position, see the globe view (requires WebGL).

§ Visibility from observer

Set your observer location to see the next 7 days of passes ≥ 10°. The values pass through the URL so the page stays shareable.

No JS? Fill the form by hand. The geolocation button needs JavaScript.

§ Radio — SatNOGS DB

ModeDescriptionDownlinkUplink
FSK AX.100 Mode 5 Mode U - 2k4 TLM 400.595 MHz

1 transmitter · refreshed weekly from db.satnogs.org